[[{"header":{"parameterUnit":"m.s-1","parameterCategory":1,"la1":30.2991,"la2":30.254,"lo1":-89.0895,"lo2":-89.0444,"dy":0.0017,"dx":0.0017,"nx":28,"ny":28,"refTime":"2024-12-16T03:00:00:Z","depth":0,"parameterNumber":2,"parameterNumberName":"U-component_of_WINDS"},"data":[0,0,0,0,0,0,0,0,0,0,0,0,0,0,0,0,0,0,0,0,0,0,0,0,0,0,0,0,0,0,0,0,0,0,0,0,0,0,0,0,0,0,0,0,0,0,0,0,0,0,0,0,0,0,0,0,0,0,-2.1706,-2.1706,0,-2.1698,-2.1698,-2.1698,-2.1646,-2.1645,-2.1644,-2.1643,-2.1636,-2.1637,-2.1638,0,0,0,0,0,0,0,0,0,0,0,0,0,-2.1678,-2.1679,-2.1706,-2.1706,-2.1706,-2.1698,-2.1698,-2.1698,-2.1647,-2.1645,-2.1643,-2.1642,-2.1636,-2.1637,-2.1638,0,0,0,0,0,0,0,0,0,0,0,0,0,-2.1682,-2.1679,-2.1706,-2.1679,-2.1677,-2.1698,-2.1698,-2.1698,-2.1647,-2.1645,-2.1643,-2.1641,-2.1635,-2.1637,-2.1638,-2.1686,0,0,-2.1643,-2.1644,0,0,0,0,0,0,0,0,-2.1682,-2.1683,-2.1683,-2.1681,-2.1678,-2.1671,-2.1686,-2.1694,-2.1647,-2.1658,-2.1643,-2.164,-2.165,-2.165,-2.1653,-2.1686,-2.1685,-2.1643,-2.1644,-2.1645,-2.1645,0,0,0,0,0,0,0,-2.1682,-2.1683,-2.1703,-2.1683,-2.168,-2.1668,-2.1667,-2.1687,-2.1665,-2.1657,-2.1653,-2.1653,-2.1648,-2.1651,-2.1652,-2.1685,-2.1643,-2.1645,-2.1645,-2.1646,-2.1758,-2.176,0,0,0,0,0,0,-2.1685,-2.1683,-2.1703,-2.1703,-2.1675,-2.167,-2.1668,-2.1676,-2.1664,-2.1661,-2.1655,-2.1651,-2.165,-2.165,-2.1652,-2.1707,-2.1645,-2.1646,-2.1647,-2.1756,-2.1758,-2.176,0,0,0,0,0,0,-2.1685,-2.1687,-2.1704,-2.1692,-2.1693,-2.1673,-2.1681,-2.1676,-2.168,-2.1662,-2.1658,-2.1662,-2.1648,-2.165,-2.1678,-2.1706,-2.1647,-2.1648,-2.1753,-2.1756,-2.1759,-2.1817,0,0,0,0,0,0,-2.1684,-2.1687,-2.1705,-2.1693,-2.1694,-2.173,-2.1683,-2.1678,-2.1682,-2.1677,-2.1668,-2.1665,-2.1647,-2.1676,-2.1679,-2.1707,-2.1649,-2.1751,-2.1755,-2.1758,-2.1813,-2.1822,-2.183,0,0,0,0,0,-2.1683,-2.1721,-2.1706,-2.1708,-2.1715,-2.1731,-2.1732,-2.1709,-2.1685,-2.1702,-2.1691,-2.1665,-2.1702,-2.1679,-2.1683,-2.1711,-2.1749,-2.1754,-2.1758,-2.1809,-2.182,-2.1829,0,0,0,0,0,0,-2.1737,-2.1719,-2.1702,-2.1737,-2.1736,-2.1722,-2.1744,-2.1722,-2.1728,-2.1723,-2.1695,-2.1694,-2.1727,-2.1722,-2.1696,-2.1757,-2.1721,-2.1727,-2.1759,-2.1769,-2.1777,-2.1778,-2.1651,0,0,0,0,0,-2.1753,-2.1767,-2.1751,-2.1784,-2.1784,-2.1764,-2.1771,-2.1753,-2.1751,-2.1751,-2.1742,-2.1741,-2.1752,-2.1761,-2.177,-2.1812,-2.181,-2.1833,-2.1842,-2.1849,-2.1854,-2.1876,-2.1886,-2.1776,-2.1775,-2.1775,0,0,-2.1787,-2.1779,-2.1789,-2.1795,-2.1792,-2.1808,-2.1764,-2.1783,-2.1794,-2.1753,-2.1779,-2.1773,-2.1771,-2.1806,-2.1821,-2.1803,-2.1884,-2.1855,-2.186,-2.1862,-2.1882,-2.1892,-2.1902,-2.1779,-2.1778,-2.1778,0,0,-2.1855,-2.1851,-2.1878,-2.1876,-2.1872,-2.1858,-2.1865,-2.1855,-2.1849,-2.1875,-2.1845,-2.1859,-2.1879,-2.1878,-2.1881,-2.1951,-2.1927,-2.1955,-2.1999,-2.2021,-2.203,-2.2037,-2.2062,-2.2072,-2.196,-2.196,-2.196,0,-2.1897,-2.1919,-2.1894,-2.1915,-2.1918,-2.1882,-2.191,-2.1909,-2.1909,-2.1913,-2.1892,-2.1917,-2.1913,-2.1948,-2.1965,-2.1969,-2.1976,-2.1955,-2.203,-2.2038,-2.2044,-2.2068,-2.2077,-2.1963,-2.1963,-2.1962,-2.1962,0,-2.1971,-2.1987,-2.2009,-2.201,-2.2016,-2.204,-2.2019,-2.2029,-2.2012,-2.2001,-2.2028,-2.2022,-2.203,-2.2037,-2.202,-2.207,-2.2059,-2.2035,-2.1998,-2.2059,-2.208,-2.2089,-2.1968,-2.1967,-2.1966,-2.1965,0,0,-2.2073,-2.206,-2.2068,-2.2068,-2.2062,-2.2074,-2.2097,-2.2104,-2.2113,-2.2114,-2.2133,-2.2151,-2.2129,-2.2132,-2.2115,-2.2135,-2.2191,-2.2108,-2.2108,-2.2124,-2.2246,-2.2264,-2.2275,-2.2176,-2.2177,-2.2179,-2.2246,0,-2.2139,-2.2176,-2.2155,-2.2195,-2.221,-2.2177,-2.2197,-2.2195,-2.2186,-2.2198,-2.2188,-2.2201,-2.2171,-2.2172,-2.219,-2.218,-2.2215,-2.2175,-2.2193,-2.2194,-2.2194,-2.2286,-2.2305,-2.2368,-2.2254,-2.2256,-2.2257,0,-2.222,-2.2225,-2.2267,-2.2258,-2.2263,-2.2281,-2.2287,-2.2298,-2.2297,-2.2289,-2.2292,-2.2271,-2.2294,-2.2259,-2.2289,-2.2263,-2.2269,-2.2266,-2.2268,-2.2268,-2.2229,-2.2289,-2.2388,-2.2398,-2.227,-2.2269,-2.2268,0,-2.229,-2.2307,-2.2334,-2.2335,-2.2326,-2.2339,-2.2336,-2.2333,-2.2339,-2.2344,-2.2348,-2.2356,-2.236,-2.2367,-2.2349,-2.2325,-2.2383,-2.2346,-2.2377,-2.2378,-2.239,-2.239,-2.2492,-2.2395,-2.2395,-2.2395,-2.2395,0,-2.2365,-2.2392,-2.2365,-2.2382,-2.2412,-2.2388,-2.2418,-2.2412,-2.2409,-2.2424,-2.2397,-2.2412,-2.2387,-2.24,-2.2387,-2.2415,-2.2417,-2.2411,-2.2407,-2.2414,-2.2415,-2.2417,-2.2412,-2.2397,-2.2397,-2.2396,-2.2396,0,-2.2448,-2.2431,-2.2459,-2.2448,-2.2446,-2.2468,-2.2459,-2.2474,-2.2464,-2.2484,-2.2487,-2.247,-2.2485,-2.2467,-2.248,-2.2471,-2.2509,-2.2499,-2.251,-2.2506,-2.2539,-2.2536,-2.2646,-2.266,-2.2554,-2.2555,-2.2556,0,-2.2497,-2.2517,-2.2508,-2.2516,-2.2515,-2.2528,-2.2534,-2.2512,-2.252,-2.252,-2.2536,-2.2548,-2.2556,-2.258,-2.2569,-2.2579,-2.2569,-2.2607,-2.257,-2.2576,-2.2569,-2.2568,-2.257,-2.2614,-2.2615,-2.2616,-2.2617,0,-2.2586,-2.2577,-2.2586,-2.2593,-2.2601,-2.2606,-2.2608,-2.2617,-2.2594,-2.2604,-2.2618,-2.2624,-2.2637,-2.2649,-2.2656,-2.2654,-2.2632,-2.2629,-2.2637,-2.2643,-2.2649,-2.2646,-2.253,-2.2626,-2.2625,-2.2625,-2.2624,-2.2624,-2.2653,-2.2669,-2.2666,-2.2678,-2.2677,-2.2681,-2.2695,-2.2686,-2.2697,-2.2705,-2.2692,-2.271,-2.2708,-2.2716,-2.2716,-2.273,-2.2713,-2.2725,-2.2728,-2.2731,-2.2736,-2.2647,-2.2731,-2.2731,-2.273,-2.273,-2.273,0,-2.274,-2.2737,-2.2748,-2.2752,-2.2762,-2.274,-2.2742,-2.2752,-2.2767,-2.2768,-2.2777,-2.2793,-2.2805,-2.2796,-2.2806,-2.2819,-2.281,-2.2823,-2.2821,-2.2821,-2.2749,-2.2742,-2.283,-2.283,-2.283,-2.283,-2.283,-2.283,-2.2787,-2.2814,-2.2804,-2.2831,-2.2827,-2.2844,-2.2847,-2.285,-2.285,-2.287,-2.288,-2.2873,-2.287,-2.288,-2.289,-2.2887,-2.2893,-2.2909,-2.2903,-2.2836,-2.2826,-2.2817,-2.2809,-2.2911,-2.2911,-2.2973,-2.2974,-2.2974]},{"header":{"parameterUnit":"m.s-1","parameterCategory":1,"la1":30.2991,"la2":30.254,"lo1":-89.0895,"lo2":-89.0444,"dy":0.0017,"dx":0.0017,"nx":28,"ny":28,"refTime":"2024-12-16T03:00:00:Z","depth":0,"parameterNumber":3,"parameterNumberName":"V-component_of_WINDS"},"data":[0,0,0,0,0,0,0,0,0,0,0,0,0,0,0,0,0,0,0,0,0,0,0,0,0,0,0,0,0,0,0,0,0,0,0,0,0,0,0,0,0,0,0,0,0,0,0,0,0,0,0,0,0,0,0,0,0,0,0.0663,0.0663,0,0.0656,0.0656,0.0656,0.068,0.0681,0.0682,0.0682,0.0672,0.0671,0.067,0,0,0,0,0,0,0,0,0,0,0,0,0,0.0697,0.0696,0.0663,0.0663,0.0663,0.0656,0.0656,0.0656,0.068,0.0681,0.0682,0.0683,0.0673,0.0671,0.067,0,0,0,0,0,0,0,0,0,0,0,0,0,0.0685,0.0696,0.0663,0.0674,0.0675,0.0656,0.0656,0.0656,0.068,0.0681,0.0682,0.0683,0.0673,0.0672,0.067,0.0639,0,0,0.0666,0.0665,0,0,0,0,0,0,0,0,0.0686,0.0684,0.0673,0.0674,0.0675,0.067,0.0664,0.065,0.068,0.0678,0.0682,0.0684,0.0671,0.0669,0.0666,0.0639,0.0638,0.0666,0.0665,0.0664,0.0664,0,0,0,0,0,0,0,0.0686,0.0684,0.066,0.0673,0.0674,0.0679,0.0679,0.0662,0.0668,0.0678,0.068,0.0679,0.0671,0.0667,0.0665,0.0638,0.0666,0.0664,0.0664,0.0663,0.0587,0.0586,0,0,0,0,0,0,0.0686,0.0685,0.0661,0.066,0.0683,0.0678,0.0677,0.0671,0.0668,0.0669,0.0678,0.068,0.0669,0.0667,0.0665,0.063,0.0664,0.0663,0.0662,0.0588,0.0587,0.0585,0,0,0,0,0,0,0.0687,0.0684,0.0661,0.0673,0.0671,0.0676,0.0668,0.067,0.0665,0.0668,0.0669,0.0673,0.067,0.0667,0.0646,0.063,0.0662,0.0661,0.0589,0.0588,0.0586,0.0558,0,0,0,0,0,0,0.0688,0.0684,0.0672,0.0673,0.067,0.0642,0.0667,0.0669,0.0663,0.0666,0.0663,0.0664,0.067,0.0648,0.0645,0.0628,0.066,0.0591,0.0589,0.0587,0.056,0.0555,0.0551,0,0,0,0,0,0.0689,0.0663,0.0671,0.0668,0.0656,0.0641,0.0639,0.0648,0.0662,0.065,0.0652,0.0664,0.0632,0.0646,0.0642,0.0625,0.0592,0.0589,0.0587,0.0562,0.0556,0.0551,0,0,0,0,0,0,0.0659,0.0664,0.0672,0.0647,0.0644,0.0645,0.0631,0.0641,0.0633,0.0636,0.0646,0.0645,0.0622,0.0622,0.0637,0.0596,0.0614,0.0611,0.0597,0.0591,0.0587,0.0588,0.0659,0,0,0,0,0,0.065,0.0639,0.0643,0.062,0.0618,0.0625,0.0619,0.0626,0.0622,0.0621,0.0621,0.0617,0.0606,0.0599,0.0589,0.0561,0.0561,0.0547,0.0543,0.0539,0.0536,0.0522,0.0516,0.0577,0.0577,0.0577,0,0,0.0631,0.0632,0.0623,0.0614,0.0612,0.06,0.0623,0.0609,0.06,0.0618,0.0599,0.0599,0.0595,0.0571,0.056,0.0569,0.0519,0.0536,0.0533,0.0531,0.0519,0.0513,0.0508,0.0575,0.0576,0.0576,0,0,0.0589,0.0588,0.057,0.0568,0.0566,0.0571,0.0567,0.0567,0.0569,0.0549,0.0564,0.0553,0.0534,0.0531,0.0527,0.0486,0.0497,0.0483,0.0459,0.0445,0.0441,0.0436,0.0423,0.0417,0.0479,0.0479,0.0479,0,0.0564,0.0547,0.0559,0.0544,0.054,0.0558,0.0539,0.0537,0.0531,0.0528,0.0538,0.0516,0.0515,0.049,0.0481,0.0477,0.0472,0.0483,0.044,0.0436,0.0433,0.042,0.0414,0.0478,0.0478,0.0478,0.0478,0,0.0518,0.0506,0.0491,0.0487,0.0481,0.0464,0.0473,0.0466,0.0474,0.0478,0.0459,0.0458,0.0449,0.0444,0.045,0.0421,0.0427,0.0439,0.0458,0.0425,0.0413,0.0408,0.0475,0.0476,0.0476,0.0477,0,0,0.0456,0.046,0.0455,0.0454,0.0454,0.0444,0.0429,0.0421,0.0415,0.0411,0.0399,0.0383,0.0395,0.039,0.0397,0.0386,0.0355,0.0399,0.0399,0.0392,0.0323,0.0314,0.0308,0.0362,0.0361,0.0361,0.0324,0,0.0416,0.0391,0.0401,0.0375,0.0365,0.0382,0.0369,0.0367,0.0371,0.0362,0.0366,0.0355,0.0371,0.0369,0.0358,0.0361,0.0341,0.0364,0.0351,0.035,0.0351,0.0302,0.0292,0.0257,0.0319,0.0318,0.0317,0,0.0365,0.0361,0.0334,0.0338,0.0333,0.0321,0.0316,0.0308,0.0307,0.031,0.0306,0.0316,0.0302,0.0321,0.0301,0.0316,0.0312,0.0312,0.0311,0.031,0.0332,0.03,0.0246,0.0241,0.031,0.0311,0.0311,0,0.0324,0.0311,0.0294,0.0293,0.0296,0.0287,0.0288,0.0288,0.0284,0.0279,0.0276,0.0269,0.0265,0.026,0.0268,0.0281,0.0247,0.0267,0.025,0.025,0.0241,0.0242,0.0186,0.0238,0.0238,0.0238,0.0238,0,0.0278,0.0261,0.0276,0.0265,0.0247,0.0259,0.0241,0.0243,0.0244,0.0234,0.0248,0.0239,0.025,0.0241,0.0248,0.0231,0.0229,0.0231,0.0233,0.023,0.023,0.0227,0.023,0.0237,0.0237,0.0237,0.0238,0,0.0229,0.0238,0.022,0.0226,0.0227,0.0213,0.0218,0.0208,0.0213,0.0201,0.0198,0.0206,0.0197,0.0205,0.0196,0.02,0.0178,0.0183,0.0178,0.018,0.0163,0.0164,0.0104,0.0097,0.0152,0.0152,0.0151,0,0.0199,0.0187,0.0191,0.0186,0.0187,0.0178,0.0174,0.0186,0.0182,0.0181,0.0171,0.0164,0.0158,0.0143,0.0147,0.014,0.0146,0.0125,0.0145,0.0143,0.0146,0.0147,0.0146,0.0121,0.012,0.012,0.0119,0,0.0145,0.0151,0.0145,0.0141,0.0137,0.0134,0.0132,0.0127,0.014,0.0133,0.0125,0.0121,0.0113,0.0105,0.01,0.0101,0.0112,0.0113,0.0109,0.0106,0.0104,0.0105,0.0168,0.0114,0.0115,0.0115,0.0115,0.0116,0.0105,0.0096,0.0098,0.0092,0.0092,0.009,0.0082,0.0087,0.0081,0.0076,0.0083,0.0073,0.0074,0.0068,0.0068,0.006,0.0069,0.0062,0.0061,0.0059,0.0057,0.0105,0.0059,0.0059,0.0059,0.0059,0.0059,0,0.0053,0.0056,0.005,0.0048,0.0043,0.0056,0.0055,0.005,0.0041,0.0041,0.0036,0.0027,0.002,0.0025,0.0019,0.0012,0.0017,0.001,0.0011,0.0011,0.0049,0.0054,0.0006,0.0006,0.0006,0.0006,0.0006,0.0006,0.0025,0.001,0.0017,0.0002,0.0005,-0.0004,-0.0005,-0.0006,-0.0006,-0.0016,-0.0021,-0.0018,-0.0016,-0.0021,-0.0026,-0.0025,-0.0027,-0.0036,-0.0033,0.0003,0.0008,0.0013,0.0017,-0.0037,-0.0037,-0.007,-0.007,-0.007]}]]